This is the latest recevied weather packets stored in our database for station/object WE0DX-1. If no packets are shown the sender has not sent any weather packets the latest 10 day(s).
| Time | Temp. | Humidity | Pressure | Rain* | Wind** | Luminosity | Snow |
|---|---|---|---|---|---|---|---|
| 1777385966 | 9.44° C | 82% | 1018.4 hPa | 0 mm | - | 58 W/m² | - |
| 1777385662 | 9.44° C | 82% | 1018.2 hPa | 0 mm | - | 61 W/m² | - |
| 1777385360 | 9.44° C | 82% | 1017.8 hPa | 0 mm | - | 62 W/m² | - |
| 1777383536 | 8.89° C | 83% | 1017.6 hPa | 0 mm | - | 48 W/m² | - |
| 1777383233 | 8.89° C | 83% | 1018 hPa | 0 mm | - | 35 W/m² | - |
| 1777382930 | 8.89° C | 82% | 1017.7 hPa | 0 mm | - | 26 W/m² | - |
| 1777382625 | 8.89° C | 83% | 1017.7 hPa | 0 mm | - | 28 W/m² | - |
| 1777382321 | 8.89° C | 83% | 1017.6 hPa | 0 mm | - | 32 W/m² | - |
| 1777380807 | 8.89° C | 83% | 1017.5 hPa | 0 mm | - | 29 W/m² | - |
| 1777379289 | 8.89° C | 83% | 1017.1 hPa | 0 mm | - | 18 W/m² | - |
| 1777378988 | 8.89° C | 83% | 1017 hPa | 0 mm | - | 16 W/m² | - |
| 1777377770 | 8.89° C | 84% | 1016.7 hPa | 0 mm | - | 4 W/m² | - |
| 1777377160 | 8.89° C | 84% | 1016.6 hPa | 0 mm | - | 3 W/m² | - |
| 1777375945 | 8.89° C | 83% | 1015.8 hPa | 0 mm | - | 0 W/m² | - |
| 1777375640 | 8.89° C | 83% | 1015.5 hPa | 0 mm | - | 0 W/m² | - |
| 1777375335 | 8.89° C | 83% | 1015.5 hPa | 0 mm | - | 0 W/m² | - |
| 1777374419 | 8.89° C | 83% | 1015.2 hPa | 0 mm | - | 0 W/m² | - |
| 1777372600 | 8.89° C | 82% | 1014.5 hPa | 0 mm | - | 0 W/m² | - |
| 1777372300 | 8.89° C | 82% | 1014.3 hPa | 0 mm | - | 0 W/m² | - |
| 1777371998 | 8.89° C | 82% | 1014.2 hPa | 0 mm | - | 0 W/m² | - |
| 1777371689 | 8.89° C | 82% | 1013.9 hPa | 0 mm | - | 0 W/m² | - |
| 1777371386 | 8.89° C | 82% | 1013.9 hPa | 0 mm | - | 0 W/m² | - |
| 1777371083 | 8.89° C | 82% | 1014.2 hPa | 0 mm | - | 0 W/m² | - |
| 1777370778 | 8.89° C | 81% | 1015.1 hPa | 0 mm | - | 0 W/m² | - |
| 1777370475 | 8.89° C | 81% | 1015.9 hPa | 0 mm | - | 0 W/m² | - |
* Rain latest hour (hover to see other rain measurements)
** Current wind speed in m/s (hover to see current wind gust speed)